This is the latest recevied weather packets stored in our database for station/object KF6ILA. If no packets are shown the sender has not sent any weather packets the latest 10 day(s).
| Time | Temp. | Humidity | Pressure | Rain* | Wind** | Luminosity | Snow |
|---|---|---|---|---|---|---|---|
| 1787699818 | 32.78° C | 33% | 1018 hPa | 0 mm | - | 617 W/m² | - |
| 1787699521 | 32.22° C | 32% | 1018 hPa | 0 mm | - | 619 W/m² | - |
| 1787699224 | 32.78° C | 32% | 1018 hPa | 0 mm | - | 638 W/m² | - |
| 1787698630 | 32.78° C | 33% | 1018.2 hPa | 0 mm | - | 663 W/m² | - |
| 1787698333 | 32.78° C | 34% | 1018.1 hPa | 0 mm | - | 675 W/m² | - |
| 1787697739 | 32.78° C | 35% | 1018.1 hPa | 0 mm | - | 715 W/m² | - |
| 1787697442 | 32.78° C | 36% | 1018.1 hPa | 0 mm | - | 728 W/m² | - |
| 1787697145 | 32.78° C | 36% | 1018.2 hPa | 0 mm | - | 747 W/m² | - |
| 1787696848 | 33.33° C | 36% | 1018.1 hPa | 0 mm | - | 756 W/m² | - |
| 1787696254 | 32.78° C | 37% | 1018.3 hPa | 0 mm | - | 780 W/m² | - |
| 1787695363 | 33.33° C | 37% | 1018.6 hPa | 0 mm | - | 819 W/m² | - |
| 1787695066 | 33.33° C | 37% | 1018.6 hPa | 0 mm | - | 833 W/m² | - |
| 1787694769 | 33.33° C | 36% | 1018.8 hPa | 0 mm | - | 842 W/m² | - |
| 1787694472 | 33.33° C | 36% | 1018.7 hPa | 0 mm | - | 844 W/m² | - |
| 1787694175 | 33.33° C | 36% | 1018.7 hPa | 0 mm | - | 849 W/m² | - |
| 1787693581 | 33.33° C | 36% | 1018.7 hPa | 0 mm | - | 858 W/m² | - |
| 1787693284 | 33.89° C | 35% | 1018 hPa | 0 mm | - | 877 W/m² | - |
| 1787692393 | 33.89° C | 35% | 1018.1 hPa | 0 mm | - | 902 W/m² | - |
| 1787692096 | 33.89° C | 35% | 1018.3 hPa | 0 mm | - | 909 W/m² | - |
| 1787691799 | 33.89° C | 34% | 1018.4 hPa | 0 mm | - | 907 W/m² | - |
| 1787691502 | 33.33° C | 34% | 1018.3 hPa | 0 mm | - | 919 W/m² | - |
| 1787690908 | 33.89° C | 33% | 1018.4 hPa | 0 mm | - | 933 W/m² | - |
| 1787690314 | 33.33° C | 33% | 1018.5 hPa | 0 mm | - | 947 W/m² | - |
| 1787690017 | 33.33° C | 33% | 1018.5 hPa | 0 mm | - | 960 W/m² | - |
| 1787689720 | 32.78° C | 34% | 1018.6 hPa | 0 mm | - | 967 W/m² | - |
* Rain latest hour (hover to see other rain measurements)
** Current wind speed in m/s (hover to see current wind gust speed)